Location: Crescent
(42.8242°N, 73.7329°W)
Time: 20:47:38
(UTC+00:00)

Vanguard 2 Rocket - Pass Details

Date: 20 February 2026
Orbit: 553 x 3286 km, 32.9° (Epoch: 9 March)

Event Time Altitude Azimuth Distance (km) Brightness Sun altitude
Rises 22:15:04 0° 276° (W) 6,333 12.7 2.4°
Reaches altitude 10° 22:20:42 10° 267° (W) 4,840 12.6 1.4°
Maximum altitude 22:30:11 26° 218° (SW) 2,820 10.2 -0.3°
Drops below altitude 10° 22:36:33 10° 166° (SSE) 3,128 9.7 -1.4°
Sets 22:39:19 0° 152° (SSE) 3,767 9.9 -1.9°
